STARLINK-35652

Last updated on Wed Dec 10 2025 00:02:05 GMT+0000 (Coordinated Universal Time)

1 66393U 25257P 25343.66668981 .00130800 00000+0 32394-2 0 9999 2 66393 53.1590 278.8246 0000987 101.7346 92.2516 15.39476320 6006
UTC large
Height (km)
Speed (km/s)
/
Latitude / Longitude
Inclination (degrees)
Orbital Period (minutes)
Azimuth
Elevation
Range (km)
Doppler Factor

Next 0 passes for location: London (51.5072 / 0.1276)

Sorry there are no passes over London.